EW8487 Weather Reports


time (UTC)temp
F
wind
direction
speed
knots
gust
knots
rain 1hr
in
rain 24hr
in
rain mn
in
humidity
%
barometer
mb
20260508125509 62 226 0.9 2.6 0.00 0.30 0.00 66 1008.9
20260508124004 63 168 0.9 1.7 0.00 0.30 0.00 62 1009.1
20260508122508 61 208 0.0 2.6 0.00 0.30 0.00 64 1009.3
20260508121005 62 165 0.9 2.6 0.00 0.30 0.00 64 1009.2
20260508115508 60 192 0.9 1.7 0.00 0.30 0.00 68 1009.4
20260508114004 58 200 0.9 1.7 0.00 0.30 0.00 68 1009.6
20260508112507 58 198 0.0 1.7 0.00 0.30 0.00 71 1009.7
20260508111004 60 201 0.0 1.7 0.00 0.30 0.00 69 1010.0
20260508104005 59 177 0.9 2.6 0.00 0.30 0.00 67 1010.0
20260508102507 57 165 0.9 2.6 0.00 0.30 0.00 72 1010.1
20260508101004 57 170 0.9 1.7 0.00 0.30 0.00 70 1010.0
20260508095508 56 343 0.0 2.6 0.00 0.30 0.00 73 1010.1
20260508094004 55 194 0.0 1.7 0.00 0.30 0.00 78 1010.3
20260508092543 56 178 0.9 1.7 0.00 0.30 0.00 76 1010.1
20260508091031 55 318 0.0 1.7 0.00 0.30 0.00 82 1010.3
20260508085525 51 180 0.0 1.7 0.00 0.30 0.00 87 1010.1
20260508084018 49 184 0.0 1.7 0.00 0.30 0.00 93 1010.1
20260508082513 49 154 1.7 1.7 0.00 0.30 0.00 92 1009.8
20260508081005 49 216 0.0 1.7 0.00 0.30 0.00 92 1010.0
20260508075508 49 205 0.0 2.6 0.00 0.30 0.00 91 1010.1
20260508072508 49 36 0.0 0.9 0.00 0.30 0.00 92 1009.8
20260508071005 48 125 0.9 0.9 0.00 0.30 0.00 92 1009.7
20260508065508 48 176 0.9 1.7 0.00 0.30 0.00 93 1009.4
20260508064004 48 226 0.0 0.9 0.00 0.30 0.00 95 1009.2
20260508061004 47 200 0.0 0.9 0.00 0.30 0.00 96 1008.8
20260508055508 47 294 0.0 0.9 0.00 0.30 0.00 96 1008.9
20260508054004 47 245 0.0 0.9 0.00 0.30 0.00 96 1008.7
20260508052507 47 252 0.0 0.0 0.00 0.30 0.00 96 1008.5
20260508045507 46 260 0.0 0.9 0.00 0.30 0.00 96 1008.6
20260508044004 46 203 0.0 0.9 0.00 0.30 0.00 96 1008.5
20260508042507 46 207 0.0 0.9 0.00 0.30 0.00 95 1008.7
20260508041003 47 319 0.0 0.9 0.00 0.30 0.00 95 1008.9
20260508035507 46 224 0.0 0.9 0.00 0.30 0.00 96 1008.6
20260508034003 46 49 0.0 0.9 0.00 0.30 0.00 96 1008.7
20260508032507 46 4 0.9 0.9 0.00 0.30 0.00 97 1008.7
20260508031002 45 271 0.0 0.9 0.00 0.30 0.00 98 1009.0
20260508025508 44 235 0.0 0.9 0.00 0.30 0.00 98 1008.9
20260508021003 45 226 0.0 0.9 0.00 0.30 0.00 98 1008.5
20260508014003 46 297 0.0 0.9 0.00 0.30 0.00 98 1009.0
20260508011007 46 229 0.9 0.9 0.00 0.30 0.00 98 1009.7
20260508005507 45 267 0.0 0.9 0.00 0.30 0.00 98 1009.9
20260508004003 44 271 0.0 0.9 0.00 0.30 0.00 97 1009.8
20260508002507 43 252 0.0 0.9 0.00 0.30 0.00 97 1009.7
20260508001004 44 295 0.0 0.0 0.00 0.30 0.00 97 1009.7
20260507235508 44 239 0.0 0.9 0.00 0.30 0.00 97 1009.9
20260507234042 45 231 0.0 0.9 0.00 0.30 0.00 97 1009.9
20260507232535 46 225 0.0 0.9 0.00 0.30 0.00 96 1009.9
20260507231024 46 228 0.0 0.9 0.00 0.30 0.00 96 1010.2
20260507225522 46 249 0.0 0.9 0.00 0.30 0.00 96 1010.2
20260507224012 46 280 0.0 0.9 0.00 0.30 0.00 96 1010.3
20260507222508 46 249 0.0 0.9 0.00 0.30 0.00 96 1010.5
20260507221004 47 233 0.0 0.9 0.00 0.30 0.00 95 1010.3
20260507215507 47 291 0.9 0.9 0.00 0.30 0.30 95 1010.8
20260507214004 47 306 0.0 0.9 0.00 0.30 0.30 95 1010.4
20260507212507 46 224 0.0 0.9 0.00 0.30 0.30 95 1010.6
20260507211004 47 290 0.0 0.9 0.00 0.30 0.30 95 1010.4
20260507205508 46 238 0.9 0.9 0.00 0.30 0.30 94 1010.1
20260507204004 47 231 0.0 0.9 0.00 0.30 0.30 94 1009.9
20260507202506 47 241 0.0 0.9 0.00 0.30 0.30 93 1009.8
20260507201002 48 246 0.0 0.9 0.00 0.30 0.30 91 1009.6
20260507195507 48 193 0.0 0.9 0.00 0.30 0.30 91 1009.5
20260507194003 49 6 0.0 0.9 0.00 0.30 0.30 90 1009.5
20260507192509 49 231 0.0 0.9 0.00 0.30 0.30 90 1009.2
20260507191002 50 106 0.0 0.9 0.00 0.30 0.30 88 1008.9
20260507181004 52 169 0.0 1.7 0.00 0.30 0.30 79 1008.2
20260507175506 53 122 0.9 1.7 0.00 0.30 0.30 77 1008.0
20260507174003 54 194 0.0 1.7 0.00 0.30 0.30 75 1008.1
20260507165506 54 61 0.9 1.7 0.00 0.30 0.30 75 1007.8
20260507164003 55 178 0.9 1.7 0.00 0.30 0.30 75 1008.0
20260507162507 54 91 0.0 0.9 0.00 0.30 0.30 80 1007.8
20260507161003 53 151 0.9 1.7 0.00 0.30 0.30 83 1007.5
20260507155506 52 179 0.9 1.7 0.01 0.29 0.30 86 1007.9
20260507154002 50 194 0.9 1.7 0.04 0.29 0.30 93 1007.7
20260507152506 49 165 0.9 1.7 0.08 0.29 0.30 95 1007.8
20260507151003 48 131 0.0 0.9 0.13 0.29 0.30 95 1008.1
20260507145506 48 127 0.0 0.9 0.17 0.14 0.29 96 1008.4
20260507142507 47 192 0.0 0.9 0.12 0.14 0.22 95 1009.0
20260507141003 48 205 0.0 0.9 0.12 0.14 0.17 94 1009.0
20260507135506 49 223 0.0 0.9 0.02 0.02 0.11 94 1008.8
20260507134002 50 174 0.0 1.7 0.02 0.02 0.03 94 1008.7
20260507132512 50 28 0.0 0.0 0.00 0.00 0.00 93 1008.4
20260507131055 50 103 0.9 3.5 0.03 0.02 0.03 92 1008.2